Location: Unspecified
(0.0000°N, 0.0000°E)
Time: 07:05:52
(UTC+00:00)

Vanguard 1 Rocket - Visible Passes

Search period start: 25 June 2017 00:00
Search period end: 05 July 2017 00:00
Orbit: 651 x 4226 km, 34.3° (Epoch: 23 June)

Date Brightness Start Highest point End Pass type
(mag) Time Alt. Az. Time Alt. Az. Time Alt. Az.
25 Jun 11.0 18:39:20 10° NW 19:02:06 46° NE 19:21:16 17° E visible
25 Jun 10.1 21:09:47 10° NW 21:36:36 85° SW 21:38:33 80° SSE visible
25 Jun 11.4 23:48:21 10° W 23:55:50 21° W 23:55:50 21° W visible
26 Jun 10.3 19:55:17 10° NW 20:21:12 74° NE 20:31:21 47° ESE visible
26 Jun 10.7 22:29:26 10° WNW 22:48:38 46° WSW 22:48:38 46° WSW visible
27 Jun 10.9 18:42:00 10° NW 19:05:16 55° NE 19:24:11 20° ESE visible
27 Jun 10.2 21:12:50 10° WNW 21:39:18 72° SW 21:41:29 70° S visible
27 Jun 11.5 23:53:30 10° W 23:58:46 17° WSW 23:58:46 17° WSW visible
28 Jun 10.3 19:58:04 10° NW 20:23:58 86° NE 20:34:21 48° ESE visible
28 Jun 10.9 22:33:28 10° WNW 22:51:39 39° WSW 22:51:39 39° WSW visible
29 Jun 10.7 18:44:42 10° NW 19:08:12 65° NE 19:27:15 23° ESE visible
29 Jun 10.3 21:16:10 10° WNW 21:42:01 61° SW 21:44:33 59° SSW visible
29 Jun 11.6 23:59:18 10° WSW 00:01:51 13° WSW 00:01:51 13° WSW visible
30 Jun 10.4 20:01:02 10° NW 20:26:39 82° SW 20:37:29 47° SE visible
30 Jun 11.0 22:38:01 10° W 22:54:47 33° WSW 22:54:47 33° WSW visible
01 Jul 10.7 18:47:29 10° NW 19:10:58 76° NE 19:30:27 23° ESE visible
01 Jul 10.5 21:19:52 10° WNW 21:44:50 52° SW 21:47:45 50° SSW visible
02 Jul 9.5 05:22:32 10° S 05:23:41 11° SSE 05:24:46 10° SSE visible
02 Jul 10.5 20:04:14 10° WNW 20:29:21 71° SW 20:40:44 43° SSE visible
02 Jul 11.2 22:43:09 10° W 22:58:02 27° SW 22:58:02 27° SW visible
03 Jul 10.6 18:50:25 10° NW 19:13:39 88° NE 19:33:44 23° SE visible
03 Jul 10.7 21:23:59 10° W 21:47:53 43° SW 21:51:02 42° SSW visible
04 Jul 9.1 05:23:17 10° SSW 05:27:34 18° SSE 05:30:56 10° ESE visible
04 Jul 10.7 20:07:42 10° WNW 20:32:09 60° SW 20:44:02 38° SSE visible
04 Jul 11.3 22:48:51 10° WSW 23:01:21 22° SW 23:01:21 22° SW visible
